Regional Weather Roundup
Issued by NWS

Home | Current Version | Previous Version | Graphics & Text | Print | Product List | Glossary On
Versions: 1 2 3 4 5 6 7 8 9 10 11 12 13 14 15 16 17 18 19 20 21 22 23 24 25 26 27 28 29 30 31 32 33 34 35 36 37 38 39 40 41 42 43 44 45 46 47 48 49 50
071
ASUS44 KJAN 200403
RWRMS

MISSISSIPPI HOURLY WEATHER ROUNDUP
NATIONAL WEATHER SERVICE JACKSON MS
1000 PM CST WED NOV 19 2014

NOTE: "FAIR: INDICATES FEW OR NO CLOUDS BELOW 12,000 FEET WITH NO
SIGNIFICANT WEATHER AND/OR OBSTRUCTIONS TO VISIBILITY.

MSZ001>002-007>008-010>013-018>021-025>028-034>036-200500-
NORTHWEST MISSISSIPPI

CITY           SKY/WX    TMP DP  RH WIND       PRES   REMARKS
CLARKSDALE     MOCLDY    45  36  70 S8        30.21S
CLEVELAND      FAIR      43  37  78 S8        30.22R
GREENWOOD      PTCLDY    42  30  62 SW8       30.24R
GREENVILLE     PTCLDY    50  33  52 SW17      30.22R
GRENADA        FAIR      48  28  46 CALM      30.23S
OLIVE BRANCH   CLEAR     41  36  81 SW8       30.18R
OXFORD         FAIR      43  28  56 SW7       30.21S
TUNICA         CLEAR     41  34  75 SW8       30.20R
$$

MSZ003>006-009-014>017-022>024-029>033-037>039-200500-
NORTHEAST MISSISSIPPI

CITY           SKY/WX    TMP DP  RH WIND       PRES   REMARKS
COLUMBUS AFB   MOCLDY    43  25  50 S7        30.25S
CORINTH        FAIR      39  28  65 S6        30.18S WCI  35
GOLDN TRIANGLE CLEAR     39  25  56 SW6       30.24S WCI  35
STARKVILLE       N/A    N/A N/A N/A MISG        N/A
TUPELO         CLEAR     37  25  61 SW7       30.21S WCI  32
$$

MSZ040-058-200500-
CENTRAL MISSISSIPPI

CITY           SKY/WX    TMP DP  RH WIND       PRES   REMARKS
JACKSON INTL   CLEAR     42  28  57 S8        30.28R
JACKSON HAWKNS CLEAR     41  26  55 S8        30.28R
MERIDIAN KEY   CLEAR     36  26  67 S8        30.30R WCI  30
MERIDIAN NAS   CLEAR     44  25  47 SW7       30.29S
RAYMOND        FAIR      41  37  87 S5        30.28R
VICKSBURG      CLEAR     40  32  73 S3        30.27R
$$

MSZ059>079-200500-
SOUTH MISSISSIPPI

CITY           SKY/WX    TMP DP  RH WIND       PRES   REMARKS
BROOKHAVEN     FAIR      43  34  70 CALM      30.30S
COLUMBIA       FAIR      41  32  70 MISG        N/A
HATTIESBURG    CLEAR     43  36  76 CALM      30.33S
MCCOMB         CLEAR     41  35  79 S5        30.30R
NATCHEZ        CLEAR     46  27  46 S5        30.27S
PINE BELT      CLEAR     39  32  75 CALM      30.32S
$$

MSZ080>082-200500-
COASTAL MISSISSIPPI

CITY           SKY/WX    TMP DP  RH WIND       PRES   REMARKS
BILOXI         CLEAR     42  40  93 NE1       30.33F
PASCAGOULA     CLEAR     31  29  92 CALM      30.35S
GULFPORT       CLEAR     38  35  89 CALM      30.33F
$$



USA.gov is the U.S. government's official web portal to all federal, state and local government web resources and services.